User: anonymous   Login
Location: Unspecified
(0.0000°N, 0.0000°E)
Time: 08:57:33
(UTC+00:00)
Language:

ORS OBJECT AA - Orbit

View from above orbital plane
View from above orbital plane
View from above satellite
View from above satellite

Ground track
Ground track

The orbit data is extracted from the following two-line orbital elements,

1 39404U 13064AA  17304.93805027  .14819696  74099-5  47644-3 0  9999
2 39404  40.4789 145.0538 0001854 314.5146  47.1024 16.45154788222993
Epoch (UTC): 31 October 2017 22:30:47
Eccentricity: 0.0001854
inclination: 40.4789°
perigee height: 151 km
apogee height: 153 km
right ascension of ascending node: 145.0538°
argument of perigee: 314.5146°
revolutions per day: 16.45154788
mean anomaly at epoch: 47.1024°
orbit number at epoch: 22299

The dashed part of the orbit path shows where the satellite is in the earth's shadow,  

DLR